MOLNIYA 2-14

Last updated on Nov. 15, 2019, 4:21 a.m. UTC

1 08195U 75081A   19317.02573807 -.00001100  00000-0 -11410-2 0  9990
2 08195  62.9061 311.5133 7390309 291.4470   8.5193  2.02114752323765
UTC
Height (km)
Latitude
Longitude
Inclination
Orbital Period
UTC large
Height (km)
Speed (km/s)
/
Latitude / Longitude
Inclination (degrees)
Orbital Period (minutes)
Azimuth
Elevation
Range (km)
Doppler Factor
iOS Compass Heading
iOS Angle

Next 30 passes for location: Hong Kong

Rise time Rise Azimuth (degrees) Set time Set Azimuth (degrees) Duration Max altitude (degrees)

No matching passes for this satellites